WM1R Weather Reports


time (UTC)temp
C
wind
direction
speed
KPH
gust
KPH
rain 1hr
cm
rain 24hr
cm
rain mn
cm
humidity
%
barometer
mb
20260510193019 15 219 3.2 27.4 0.00 0.05 0.05 73 1014.6
20260510191532 13 312 6.4 16.1 0.00 0.05 0.05 74 1014.6
20260510190032 13 281 4.8 16.1 0.00 0.08 0.05 76 1014.9
20260510184528 13 185 8.0 16.1 0.00 0.13 0.05 76 1014.7
20260510183012 13 288 4.8 14.5 0.00 0.15 0.05 78 1014.7
20260510181518 13 227 6.4 20.9 0.00 0.20 0.05 80 1014.7
20260510180024 12 265 3.2 16.1 0.03 0.23 0.05 83 1014.9
20260510174526 12 235 3.2 11.3 0.03 0.25 0.05 84 1014.7
20260510173028 12 313 3.2 9.7 0.03 0.30 0.05 89 1015.0
20260510171524 11 203 4.8 22.5 0.03 0.33 0.05 86 1015.0
20260510170021 12 232 4.8 24.1 0.00 0.33 0.03 79 1015.1
20260510164506 12 208 12.9 24.1 0.00 0.38 0.03 79 1015.0
20260510163010 12 214 3.2 11.3 0.00 0.41 0.03 83 1014.8
20260510161516 12 187 3.2 12.9 0.00 0.43 0.03 83 1014.7
20260510160029 12 183 3.2 12.9 0.00 0.43 0.03 84 1014.7
20260510154504 12 329 4.8 9.7 0.00 0.43 0.03 80 1014.7
20260510153007 12 196 3.2 17.7 0.00 0.46 0.03 79 1014.6
20260510151518 13 30 1.6 12.9 0.00 0.46 0.03 82 1014.1
20260510150018 12 147 3.2 12.9 0.00 0.46 0.03 79 1014.1
20260510144510 13 205 4.8 14.5 0.00 0.46 0.03 78 1014.1
20260510143009 13 73 6.4 17.7 0.00 0.46 0.03 82 1014.0
20260510141514 12 160 6.4 14.5 0.00 0.46 0.03 83 1014.3
20260510140021 11 195 4.8 19.3 0.00 0.46 0.03 87 1014.3
20260510134520 11 164 6.4 14.5 0.00 0.46 0.03 86 1014.3
20260510133005 11 194 1.6 12.9 0.00 0.46 0.03 92 1014.3
20260510131507 10 110 4.8 12.9 0.00 0.46 0.03 94 1013.9
20260510130014 10 90 4.8 11.3 0.00 0.46 0.03 96 1013.9
20260510124518 9 211 6.4 9.7 0.00 0.46 0.03 95 1014.1
20260510123024 9 108 6.4 14.5 0.00 0.46 0.03 97 1013.9
20260510121508 9 165 3.2 6.4 0.00 0.46 0.03 97 1014.0
20260510120010 8 99 0.0 9.7 0.00 0.46 0.03 98 1013.9
20260510114521 8 71 1.6 6.4 0.00 0.46 0.03 97 1013.6
20260510113029 8 83 0.0 8.0 0.00 0.46 0.03 97 1013.8
20260510111526 7 170 4.8 9.7 0.00 0.46 0.03 97 1013.7
20260510110008 7 67 0.0 1.6 0.00 0.46 0.03 97 1013.7
20260510104512 7 224 0.0 3.2 0.00 0.46 0.03 97 1013.3
20260510103018 7 202 1.6 4.8 0.00 0.46 0.03 97 1013.0
20260510101523 7 208 0.0 8.0 0.00 0.46 0.03 97 1012.5
20260510100024 7 263 3.2 11.3 0.00 0.46 0.03 97 1012.2
20260510094513 7 229 1.6 6.4 0.00 0.46 0.03 97 1012.1
20260510093017 7 162 3.2 6.4 0.00 0.46 0.03 97 1012.0
20260510091526 6 119 1.6 4.8 0.00 0.46 0.03 97 1011.9
20260510090026 7 170 0.0 3.2 0.00 0.46 0.03 97 1012.3
20260510083015 7 111 1.6 6.4 0.00 0.46 0.03 97 1012.6
20260510081529 7 183 3.2 8.0 0.00 0.46 0.03 97 1012.9
20260510080040 6 209 1.6 8.0 0.00 0.46 0.03 97 1012.7
20260510074526 6 156 3.2 6.4 0.00 0.46 0.03 97 1012.7
20260510073025 6 78 0.0 3.2 0.00 0.46 0.03 97 1012.5
20260510071519 6 96 1.6 6.4 0.00 0.46 0.03 97 1012.6
20260510070022 6 336 0.0 4.8 0.00 0.46 0.03 97 1012.7
20260510064524 6 59 0.0 4.8 0.00 0.46 0.03 97 1012.8
20260510063034 5 44 1.6 4.8 0.03 0.46 0.03 97 1012.7
20260510061517 5 37 0.0 3.2 0.03 0.46 0.03 97 1013.0
20260510060034 5 360 0.0 3.2 0.03 0.46 0.03 97 1013.0
20260510054526 5 19 0.0 4.8 0.03 0.46 0.03 97 1013.0
20260510053025 5 50 1.6 4.8 0.00 0.43 0.00 97 1013.0
20260510051512 5 15 1.6 6.4 0.00 0.43 0.00 97 1012.9
20260510050018 5 136 1.6 4.8 0.00 0.43 0.00 97 1013.3
20260510044500 5 61 1.6 6.4 0.00 0.43 0.00 97 1013.1
20260510043009 5 22 1.6 14.5 0.00 0.43 0.00 97 1013.2
20260510041510 5 233 1.6 9.7 0.00 0.43 0.00 97 1013.1
20260510040016 5 46 4.8 12.9 0.00 0.43 0.00 97 1013.0
20260510034522 5 75 3.2 14.5 0.00 0.43 0.43 97 1013.0
20260510033003 5 147 6.4 19.3 0.00 0.43 0.43 97 1013.0
20260510031509 5 117 3.2 14.5 0.00 0.43 0.43 97 1013.1
20260510030016 5 238 1.6 22.5 0.00 0.43 0.43 97 1013.3
20260510024516 5 38 3.2 11.3 0.00 0.43 0.43 97 1013.2
20260510023023 5 67 4.8 16.1 0.00 0.43 0.43 96 1013.5
20260510021514 5 65 4.8 12.9 0.00 0.43 0.43 96 1013.7
20260510020010 5 67 1.6 14.5 0.00 0.43 0.43 96 1013.6
20260510014531 5 54 4.8 12.9 0.00 0.43 0.43 96 1013.7
20260510013020 5 70 4.8 12.9 0.00 0.43 0.43 96 1013.7
20260510011524 5 114 8.0 12.9 0.00 0.43 0.43 96 1013.8
20260510010020 5 74 6.4 14.5 0.00 0.43 0.43 96 1013.9
20260510004512 5 130 3.2 14.5 0.00 0.43 0.43 96 1013.8
20260510003023 5 44 6.4 14.5 0.00 0.43 0.43 96 1013.4
20260510001522 5 56 6.4 14.5 0.00 0.43 0.43 96 1013.4
20260510000004 5 51 4.8 14.5 0.00 0.43 0.43 96 1013.2
20260509234510 5 111 4.8 20.9 0.00 0.43 0.43 96 1013.0
20260509233013 5 92 4.8 16.1 0.00 0.43 0.43 96 1013.0
20260509231519 5 93 8.0 16.1 0.00 0.43 0.43 95 1013.1
20260509230035 5 59 6.4 16.1 0.00 0.43 0.43 95 1013.3
20260509224507 5 67 6.4 17.7 0.00 0.43 0.43 95 1013.3
20260509223011 5 183 3.2 17.7 0.00 0.43 0.43 95 1013.3
20260509221520 5 39 4.8 17.7 0.00 0.43 0.43 95 1013.4
20260509220022 5 128 4.8 17.7 0.00 0.43 0.43 95 1013.5
20260509214524 5 76 6.4 14.5 0.00 0.43 0.43 95 1013.6
20260509213017 5 14 4.8 11.3 0.00 0.43 0.43 95 1013.7
20260509211515 5 77 1.6 12.9 0.00 0.43 0.43 94 1013.8
20260509210021 5 107 1.6 16.1 0.00 0.43 0.43 94 1013.7
20260509204525 6 127 8.0 17.7 0.00 0.43 0.43 94 1013.7
20260509203028 6 102 4.8 14.5 0.00 0.43 0.43 94 1013.7
20260509201516 6 109 4.8 16.1 0.00 0.43 0.43 94 1013.7
20260509200016 6 59 4.8 16.1 0.03 0.43 0.43 94 1013.8
20260509194532 5 130 8.0 17.7 0.08 0.43 0.43 93 1013.9